This is the latest recevied weather packets stored in our database for station/object W8BS. If no packets are shown the sender has not sent any weather packets the latest 10 day(s).
| Time | Temp. | Humidity | Pressure | Rain* | Wind** | Luminosity | Snow |
|---|---|---|---|---|---|---|---|
| 1777651898 | 12.22° C | 55% | 1011.5 hPa | 0 mm | - | 364 W/m² | - |
| 1777651594 | 12.22° C | 53% | 1011.6 hPa | 0 mm | - | 369 W/m² | - |
| 1777651292 | 12.78° C | 50% | 1011.6 hPa | 0 mm | - | 394 W/m² | - |
| 1777650988 | 12.78° C | 53% | 1011.8 hPa | 0 mm | - | 490 W/m² | - |
| 1777650685 | 12.22° C | 48% | 1011.9 hPa | 0 mm | - | 444 W/m² | - |
| 1777650383 | 12.78° C | 48% | 1012.2 hPa | 0 mm | - | 479 W/m² | - |
| 1777650080 | 12.78° C | 51% | 1011.9 hPa | 0 mm | - | 475 W/m² | - |
| 1777649777 | 12.78° C | 52% | 1012.1 hPa | 0 mm | - | 515 W/m² | - |
| 1777649474 | 12.22° C | 53% | 1012.1 hPa | 0 mm | - | 354 W/m² | - |
| 1777649170 | 12.22° C | 53% | 1012.3 hPa | 0 mm | - | 362 W/m² | - |
| 1777648867 | 12.22° C | 55% | 1012.3 hPa | 0 mm | - | 400 W/m² | - |
| 1777648261 | 12.22° C | 54% | 1012.4 hPa | 0 mm | - | 522 W/m² | - |
| 1777647956 | 12.78° C | 50% | 1012.3 hPa | 0 mm | - | 390 W/m² | - |
| 1777647654 | 12.22° C | 56% | 1012.5 hPa | 0 mm | - | 544 W/m² | - |
| 1777647349 | 12.22° C | 60% | 1012.4 hPa | 0 mm | - | 462 W/m² | - |
| 1777647048 | 11.67° C | 53% | 1012.5 hPa | 0 mm | - | 539 W/m² | - |
| 1777646744 | 12.22° C | 55% | 1012.5 hPa | 0 mm | - | 402 W/m² | - |
| 1777646438 | 12.22° C | 60% | 1012.6 hPa | 0 mm | - | 452 W/m² | - |
| 1777646135 | 11.67° C | 56% | 1012.6 hPa | 0 mm | - | 757 W/m² | - |
| 1777645833 | 10.56° C | 59% | 1012.6 hPa | 0 mm | - | 861 W/m² | - |
| 1777645530 | 10.56° C | 59% | 1012.4 hPa | 0 mm | - | 442 W/m² | - |
| 1777645226 | 10.56° C | 66% | 1012.4 hPa | 0 mm | - | 396 W/m² | - |
| 1777644921 | 10° C | 70% | 1012.5 hPa | 0 mm | - | 448 W/m² | - |
| 1777644620 | 9.44° C | 66% | 1012.2 hPa | 0 mm | - | 408 W/m² | - |
| 1777644315 | 8.89° C | 84% | 1012.5 hPa | 0 mm | - | 376 W/m² | - |
* Rain latest hour (hover to see other rain measurements)
** Current wind speed in m/s (hover to see current wind gust speed)